User: anonymous   Login
Location: Congrier
(47.8099°N, 1.1170°W)
Time: 20:16:23
(UTC+00:00)
Language:

CZ-4B DEB - Orbit

View from above orbital plane
View from above orbital plane
View from above satellite
View from above satellite

Ground track
Ground track

The orbit data is extracted from the following two-line orbital elements,

1 27433U 02024D   24056.83183058  .00000641  00000-0  36546-3 0  9998
2 27433  99.0264  90.9292 0014282  10.3481 349.7982 14.13350581122273
Epoch (UTC): 25 February 2024 19:57:50
Eccentricity: 0.0014282
inclination: 99.0264°
perigee height: 837 km
apogee height: 858 km
right ascension of ascending node: 90.9292°
argument of perigee: 10.3481°
revolutions per day: 14.13350581
mean anomaly at epoch: 349.7982°
orbit number at epoch: 12227

The dashed part of the orbit path shows where the satellite is in the earth's shadow,  

DLR